{"data":{"norad_id":41191,"intl_designator":"2015-082A","name":"EXPRESS-AMU1","alt_names":[],"object_type":"PAYLOAD","status":"ACTIVE","operator":null,"country":"CIS","launch_date":"2015-12-24","launch_site_code":"TYMSC","launch_vehicle":null,"mission":null,"orbit_class":"UNKNOWN","rcs_meters":19.255,"size_class":null,"mass_kg":null,"dimensions":null,"purposes":["comms"],"wikipedia_slug":null,"has_3d_model":false,"image_url":null,"decayed_at":null,"tle_current":{"epoch":"2026-09-20T03:24:27.117792Z","epoch_age_seconds":52860,"freshness":"FRESH","line1":"1 41191U 15082A   26263.14198053  .00000151  00000+0  00000+0 0  9997","line2":"2 41191   0.0166 140.8902 0002414  43.6552 261.7049  1.00273239 39212","mean_motion":1.00273239,"eccentricity":0.0002414,"inclination_deg":0.0166,"raan_deg":140.8902,"arg_perigee_deg":43.6552,"mean_anomaly_deg":261.7049,"bstar":0,"rev_number":3921,"period_min":1436.0760800796,"perigee_km":35776.008889235,"apogee_km":35796.365825034,"semimajor_km":42164.324357134,"source":"CELESTRAK","updated_at":"2026-09-20T09:00:35.222281Z"}}}